Home   Weather   Chennai   Past weeks
Flag for India

Past Weather in Chennai, Tamil Nadu, India — Yesterday and Last 2 Weeks

Now
84 °F

Clear.


Feels Like: 86 °F
Forecast: 86 / 68 °F
Wind: 14 mph from Northeast

Location: Madras / Minambakkam

Current Time: Jan 19, 2019 at 4:22:09 pm

Latest Report: Jan 19, 2019 at 3:30 pm


Visibility: 4 mi

Pressure: 29.92 "Hg

Humidity: 51%

Dew Point: 64 °F

Location of ChennaiLocation

Past Weather in Chennai — Graph

°F

Chennai Temperature Yesterday

Maximum temperature yesterday: 84 °F (at 11:00 am)
Minimum temperature yesterday: 70 °F (at 3:00 am)
Average temperature yesterday: 77 °F

High & Low Weather Summary for the Past Weeks

 TemperatureHumidityPressure
High86 °F (Jan 6, 12:30 pm)100% (Jan 8, 5:00 am)30.09 "Hg (Jan 8, 5:00 am)
Low66 °F (Jan 9, 6:00 am)40% (Jan 8, 2:30 pm)29.86 "Hg (Jan 17, 4:00 pm)
Average77 °F75%29.97 "Hg
* Reported Jan 4 2:30 pm — Jan 19 3:00 pm, Chennai. Weather by CustomWeather, © 2019

Note: Actual official high and low records may vary slightly from our data, if they occured in-between our weather recording intervals... More about our weather records

Advertising

Chennai Weather History for the Previous 24 Hours

Scroll right to see more
 ConditionsComfort  
Time TempWeatherWind HumidityBarometerVisibility
3:00 pm
Sat, Jan 19
84 °FPassing clouds.14 mph55%29.92 "Hg4 mi
2:30 pm84 °FPassing clouds.14 mph55%29.95 "Hg4 mi
2:00 pm84 °FPassing clouds.14 mph51%29.95 "Hg4 mi
1:30 pm84 °FPassing clouds.14 mph51%29.95 "Hg4 mi
1:00 pm84 °FHaze.12 mph51%29.98 "Hg3 mi
12:30 pm84 °FHaze.12 mph51%30.01 "Hg3 mi
12:00 pm84 °FHaze.9 mph51%30.01 "Hg3 mi
11:30 am84 °FScattered clouds.9 mph58%30.01 "Hg3 mi
11:00 am82 °FScattered clouds.7 mph62%30.04 "Hg2 mi
10:30 am82 °FScattered clouds.9 mph62%30.04 "Hg2 mi
10:00 am81 °FScattered clouds.9 mph66%30.04 "Hg2 mi
9:30 am79 °FHaze.3 mph70%30.04 "Hg2 mi
9:00 am77 °FFog.3 mph79%30.04 "Hg1 mi
8:30 am73 °FFog.3 mph83%30.01 "Hg1 mi
8:00 am72 °FFog.No wind88%29.98 "Hg1 mi
7:30 am70 °FFog.3 mph88%29.98 "Hg1 mi
7:00 am70 °FFog.3 mph88%29.98 "Hg1 mi
6:30 am70 °FFog.3 mph94%29.95 "Hg1 mi
6:00 am70 °FFog.3 mph94%29.95 "Hg1 mi
5:30 am70 °FFog.3 mph94%29.95 "Hg1 mi
5:00 am70 °FFog.5 mph94%29.95 "Hg1 mi
4:30 am70 °FFog.5 mph94%29.95 "Hg1 mi
4:00 am72 °FFog.5 mph88%29.95 "Hg1 mi
3:30 am72 °FFog.5 mph88%29.95 "Hg1 mi
3:00 am72 °FFog.5 mph88%29.95 "Hg1 mi
2:00 am72 °FFog.No wind88%29.95 "Hg1 mi
1:30 am73 °FFog.No wind83%29.95 "Hg1 mi
1:00 am72 °FFog.No wind88%29.95 "Hg2 mi
12:30 am72 °FFog.No wind88%29.95 "Hg2 mi
12:00 am73 °FFog.No wind83%29.98 "Hg2 mi
11:30 pm
Fri, Jan 18
72 °FFog.No wind83%29.98 "Hg2 mi
11:00 pm73 °FFog.No wind78%29.98 "Hg2 mi
10:30 pm73 °FFog.No wind78%29.98 "Hg2 mi
10:00 pm75 °FFog.No wind74%29.98 "Hg2 mi
9:30 pm75 °FFog.3 mph74%29.98 "Hg2 mi
9:00 pm77 °FFog.3 mph74%29.98 "Hg2 mi
8:30 pm77 °FFog.5 mph74%29.98 "Hg2 mi
8:00 pm77 °FFog.3 mph74%29.95 "Hg2 mi
7:30 pm79 °FHaze.3 mph70%29.95 "Hg2 mi
7:00 pm79 °FHaze.5 mph70%29.95 "Hg2 mi
6:30 pm79 °FHaze.6 mph65%29.92 "Hg2 mi
6:00 pm79 °FHaze.7 mph65%29.92 "Hg2 mi
5:30 pm81 °FHaze.9 mph62%29.92 "Hg2 mi
5:00 pm82 °FHaze.9 mph58%29.92 "Hg2 mi
4:30 pm82 °FHaze.9 mph58%29.89 "Hg2 mi
4:00 pm84 °FHaze.12 mph55%29.89 "Hg2 mi
Weather by CustomWeather, © 2019

See weather overview